Tracking 19817 objects as of 18-Aug-2019
HD Live streaming from Space Station
objects crossing your sky now

COSMOS 1823 DEB

Track COSMOS 1823 DEB now!
10-day predictions


NORAD ID: 18755
Int'l Code: 1987-020AG
Perigee: 1,477.8 km
Apogee: 1,531.7 km
Inclination: 73.6 °
Period: 115.9 minutes
Semi major axis: 7875 km
RCS: 0.0433 m2 (small)
Launch date: February 20, 1987
Source: Commonwealth of Independent States (former USSR) (CIS)
Launch site: PLESETSK MISSILE AND SPACE COMPLEX (PKMTR)

Note: This is SATELLITE DEBRIS
aabbcc
Your satellite tracking list
Your tracking list is empty




NASA's NSSDC Master Catalog

Two Line Element Set (TLE):
1 18755U 87020AG  19226.87702097 +.00000021 +00000-0 +27929-3 0  9998
2 18755 073.6390 182.8285 0034249 180.6508 207.9263 12.42122189434765
Source of the keplerian elements: AFSPC